Wetbulb
76.77 76.17 75.73 75.58 75.06 75.71 75.78 75.47 75.54 72.63 73.67 74.44 72.89 72.68 73.11 74.35 72.59 72.96 74.56 77.83 77.26 77.47 76.74 76.10 75.42 75.53 75.81 75.83 75.40 74.70 74.76 75.31 75.44 75.57 75.53 74.99 74.96 75.29 74.93 74.78 74.38 74.75 74.74
76.71 76.68 75.54 75.91 74.68 75.00 75.69 75.75 74.15 75.53 73.86 75.74 72.32 72.49 72.08 73.80 76.01 73.48 73.56 75.30 77.36 77.43 77.27 76.47 76.12 75.96 75.21 74.68 74.95 75.15 75.35 75.04 74.69 74.95 75.64 75.96 75.75 74.98 74.65 74.59 74.81 74.58 74.44
78.23 76.52 76.23 74.85 75.84 76.37 76.24 74.36 76.33 75.89 73.37 74.51 74.44 74.98 75.22 74.33 73.62 74.68 73.71 74.14 75.11 77.46 77.51 77.46 77.21 77.02 76.14 75.67 76.12 75.45 74.92 75.51 75.45 75.94 76.36 76.00 75.96 75.39 75.30 74.82 74.73 74.84 74.90
79.41 78.45 76.99 75.24 78.44 77.97 77.48 75.56 74.80 75.15 74.36 74.03 73.24 74.04 74.68 74.32 74.81 74.51 75.26 74.21 73.80 73.81 76.41 77.27 77.14 76.62 76.14 76.21 76.33 76.16 76.24 76.01 75.66 75.49 75.89 75.55 75.77 75.93 75.52 75.43 75.42 75.33 75.15
78.16 77.78 77.04 77.20 77.45 76.41 76.40 75.20 75.01 75.84 74.58 72.07 72.36 72.33 73.49 73.39 72.46 74.56 74.21 73.89 73.50 74.07 74.83 75.78 77.13 77.00 76.63 76.01 76.02 76.23 76.72 76.90 76.36 76.25 75.47 75.44 75.60 75.72 75.83 75.58 75.43 75.43 75.43
79.32 77.72 77.29 76.76 77.66 77.27 76.44 75.20 75.08 74.44 74.45 73.92 71.98 71.64 70.95 71.13 70.41 72.24 72.58 73.24 73.08 73.74 74.48 74.04 75.01 75.36 76.15 76.87 76.92 76.92 76.23 76.37 76.38 76.36 76.36 76.14 75.93 75.63 75.38 75.33 75.59 75.79 75.66
79.07 78.97 77.85 77.33 78.22 76.56 72.98 74.53 75.91 73.86 72.08 74.70 72.77 72.19 71.90 72.57 72.73 71.81 72.35 70.99 71.09 72.19 73.49 73.14 74.10 73.87 74.29 76.16 75.97 75.67 75.83 76.25 76.39 76.24 76.01 75.96 75.54 75.71 75.26 75.51 75.54 75.61 75.36
79.15 78.53 77.67 75.90 77.96 76.88 78.37 78.25 76.62 74.87 72.86 74.69 71.71 71.63 68.41 69.65 71.64 71.75 72.41 71.25 70.94 71.63 71.97 72.57 71.63 73.26 72.99 73.34 72.80 74.38 75.51 75.48 75.84 76.24 76.41 76.01 74.74 74.04 74.56 75.03 75.18 75.10 75.21
79.07 78.57 78.39 78.46 78.52 72.10 70.70 76.49 76.30 75.77 73.51 74.56 74.43 71.18 67.40 66.15 70.10 73.25 71.51 71.68 71.41 72.05 73.04 72.65 73.03 73.59 74.55 74.14 74.31 73.94 75.42 75.16 75.65 76.28 75.76 75.56 75.06 74.79 74.61 74.96 75.06 74.75 74.58
78.56 78.84 79.53 79.09 77.90 70.71 66.72 67.12 75.49 75.85 75.46 72.86 73.99 73.84 74.68 72.81 69.03 68.14 72.77 72.51 73.37 73.02 73.14 73.88 73.66 73.20 74.10 74.82 75.11 74.54 75.01 75.59 75.38 76.01 75.91 75.69 75.47 75.36 75.11 75.16 74.16 74.21 74.26
79.07 79.27 80.25 79.98 77.54 73.61 71.14 67.88 72.72 76.52 76.38 74.89 72.67 73.15 74.40 73.20 73.42 70.30 67.81 70.92 73.39 73.84 74.21 74.33 74.11 73.90 74.36 74.85 74.17 75.54 75.66 75.61 75.61 75.21 75.30 75.21 74.97 73.88 73.47 72.98 72.34 72.05 72.15
78.33 79.57 80.08 80.49 78.76 76.87 74.23 75.24 76.89 78.14 76.97 76.58 75.24 74.81 73.06 72.65 69.93 70.11 67.25 70.30 70.43 72.51 73.75 74.05 74.03 73.83 75.08 75.00 76.61 76.53 75.74 75.71 75.16 74.51 74.51 74.41 74.38 73.29 72.84 71.88 71.10 70.58 70.69
72.62 77.17 79.66 79.72 79.43 78.05 78.33 79.33 78.92 78.74 78.22 77.39 77.42 75.47 75.87 72.90 73.75 73.58 72.29 69.84 68.14 70.35 71.36 73.30 73.78 74.58 74.07 74.93 75.39 76.24 75.46 74.62 73.96 73.56 72.94 73.76 73.63 72.75 71.23 70.10 69.92 69.86 68.69
71.84 70.77 76.87 79.55 77.93 78.52 80.00 78.85 78.15 77.59 78.17 77.90 77.68 77.96 76.76 75.57 75.52 74.35 72.92 71.55 68.16 69.31 70.80 69.70 72.01 71.29 72.09 71.33 75.31 75.89 74.36 73.15 73.15 72.09 71.47 72.40 72.20 71.40 70.95 70.66 70.28 69.29 67.55
68.91 68.37 69.84 75.98 78.82 79.23 80.58 80.37 78.18 78.26 78.32 78.15 77.84 77.97 77.42 76.20 76.49 76.49 74.32 72.40 69.09 66.53 67.89 71.70 70.85 71.75 72.16 70.29 69.56 74.01 73.98 72.47 72.14 71.33 70.44 70.87 70.65 70.31 70.07 69.74 69.16 67.93 66.74
67.98 67.70 68.05 69.55 78.25 79.77 80.13 79.92 77.50 77.71 77.84 78.27 77.08 76.10 76.76 76.62 76.68 77.12 75.58 74.97 73.66 70.27 68.09 72.65 70.81 72.36 70.31 71.23 71.14 71.96 73.54 72.28 71.64 70.82 70.01 69.83 69.67 69.50 69.42 69.03 68.10 67.07 65.94
67.15 66.23 66.07 71.25 77.49 78.98 79.21 79.41 78.12 77.91 77.68 79.09 77.37 76.84 76.58 76.63 74.69 75.87 75.48 75.65 74.31 73.47 69.87 71.56 73.43 73.40 68.59 66.91 68.32 71.67 74.68 72.11 71.33 70.00 69.70 69.15 68.70 68.43 68.62 68.20 67.56 66.57 65.71
66.93 66.46 72.09 76.69 78.49 79.55 79.47 78.49 78.48 78.09 77.88 77.43 76.08 75.94 76.22 76.04 75.81 76.19 74.97 74.31 74.86 73.33 70.59 69.50 71.58 72.27 72.01 72.82 73.88 72.83 73.58 73.92 72.83 69.94 69.12 68.43 67.70 67.32 67.27 67.03 66.38 65.56 64.68
77.85 78.81 80.12 80.41 80.44 80.56 79.67 79.01 79.19 79.19 79.10 78.10 77.68 77.48 77.16 77.14 75.69 75.54 76.01 74.91 74.53 74.25 73.20 71.53 70.10 72.94 73.16 73.27 72.86 73.21 73.36 72.87 72.87 70.68 68.08 67.48 67.03 66.57 66.26 65.55 64.82 63.74 62.95
80.06 80.17 80.05 80.80 81.51 80.65 80.10 79.74 79.62 79.03 78.82 78.08 77.72 77.00 76.67 75.93 75.19 75.39 75.18 74.96 74.11 73.30 72.60 71.86 70.23 70.53 71.65 72.39 71.54 69.23 69.29 71.47 70.67 71.50 69.30 67.61 66.92 66.34 65.77 64.82 64.38 63.47 61.28
80.44 80.48 80.36 80.93 80.66 79.04 77.92 79.52 79.54 79.01 78.39 76.82 76.87 76.57 75.87 74.68 72.97 71.87 72.47 72.66 72.66 72.82 72.00 71.53 69.85 69.59 69.16 68.92 68.88 70.40 69.63 69.78 70.76 70.74 69.53 66.33 65.05 64.37 64.23 65.15 65.22 65.25 62.68
80.17 80.12 79.82 80.21 80.41 76.84 71.56 72.17 76.50 77.68 77.46 76.61 74.76 74.56 74.91 73.93 73.60 70.09 69.65 69.36 69.62 69.70 70.04 71.78 70.57 69.93 69.57 69.96 70.01 70.53 69.99 68.43 66.39 71.20 68.84 66.95 66.74 63.65 63.31 63.57 64.51 64.02 62.96
78.07 76.82 79.64 78.99 77.70 74.95 69.11 70.69 72.50 78.54 75.88 75.81 75.01 74.64 73.44 73.40 71.04 72.22 71.27 68.89 68.69 67.98 68.15 69.90 69.04 69.22 69.25 71.44 71.68 70.33 69.63 69.42 68.32 68.79 67.44 64.75 66.96 64.84 64.24 63.59 63.66 63.10 62.23
79.19 77.74 78.91 79.80 76.28 68.50 66.39 69.46 72.40 78.36 76.45 75.57 74.86 74.31 73.42 72.43 65.86 67.01 69.38 72.03 72.74 73.14 72.03 70.55 70.89 71.48 72.46 72.34 71.82 71.05 70.38 70.07 70.26 69.63 68.04 62.56 65.77 63.58 65.56 64.58 63.84 63.27 61.75
78.91 79.12 78.15 78.60 74.28 69.09 62.87 63.71 67.92 76.77 75.57 75.33 74.72 69.85 71.71 68.89 63.41 63.45 67.56 69.96 71.19 72.17 70.13 67.79 67.25 67.14 67.36 67.36 67.77 69.17 67.72 67.69 66.75 67.04 67.43 64.83 65.41 65.06 64.72 64.57 64.92 63.12 61.00
79.13 78.64 77.96 78.20 69.92 69.89 59.91 60.32 65.20 74.75 74.10 72.78 72.81 65.64 62.67 63.98 61.13 60.98 66.85 68.66 67.93 68.57 68.80 70.59 71.80 69.45 67.84 69.63 66.64 69.03 69.16 67.01 67.06 65.95 68.00 64.29 64.88 63.49 62.55 65.49 65.12 64.98 64.17
MSLP
1017.07 1017.41 1017.54 1017.69 1017.82 1017.94 1018.15 1018.25 1018.49 1018.53 1018.76 1018.67 1018.71 1018.90 1018.59 1018.73 1019.14 1019.40 1019.88 1020.02 1020.12 1020.66 1021.15 1021.43 1021.70 1021.92 1022.09 1022.28 1022.41 1022.53 1022.58 1022.67 1022.72 1022.82 1022.90 1023.09 1023.25 1023.45 1023.57 1023.64 1023.76 1023.86 1023.96
1016.77 1017.00 1017.18 1017.24 1017.44 1017.51 1017.54 1017.81 1018.24 1018.37 1018.61 1018.42 1018.83 1018.77 1018.80 1018.67 1019.14 1019.27 1019.62 1020.31 1020.38 1020.46 1020.81 1021.21 1021.54 1021.75 1021.92 1022.14 1022.33 1022.46 1022.54 1022.57 1022.71 1022.91 1022.89 1022.99 1023.04 1023.21 1023.43 1023.56 1023.59 1023.67 1023.82
1016.41 1016.61 1016.95 1017.11 1016.87 1017.19 1017.36 1017.85 1018.02 1018.25 1018.44 1018.25 1018.46 1018.32 1018.58 1018.62 1018.82 1019.38 1019.87 1019.77 1020.31 1020.51 1020.63 1020.87 1021.24 1021.47 1021.66 1021.91 1022.04 1022.19 1022.32 1022.44 1022.64 1022.69 1022.82 1022.99 1023.08 1023.11 1023.22 1023.40 1023.46 1023.50 1023.59
1016.05 1016.14 1016.48 1016.83 1016.60 1017.05 1017.19 1017.94 1018.13 1018.35 1018.53 1018.83 1018.79 1018.67 1018.91 1019.32 1019.52 1019.74 1019.74 1020.08 1019.91 1020.32 1020.67 1020.71 1020.95 1021.20 1021.39 1021.54 1021.67 1021.82 1022.04 1022.37 1022.44 1022.61 1022.75 1022.79 1022.89 1022.90 1022.99 1023.17 1023.30 1023.37 1023.37
1015.72 1015.91 1016.28 1016.57 1016.80 1016.90 1017.25 1017.76 1018.27 1018.54 1018.77 1019.06 1019.27 1019.24 1019.30 1019.70 1020.26 1020.28 1020.62 1020.37 1020.17 1020.28 1020.81 1020.72 1020.65 1020.92 1021.14 1021.23 1021.41 1021.56 1021.70 1021.97 1022.18 1022.33 1022.44 1022.52 1022.65 1022.76 1022.78 1022.89 1023.04 1023.18 1023.17
1015.37 1015.81 1016.12 1016.25 1016.39 1017.05 1017.57 1017.93 1018.28 1018.63 1018.79 1018.98 1019.25 1019.48 1019.65 1019.74 1019.86 1020.57 1020.14 1020.34 1020.47 1020.15 1020.90 1020.76 1020.48 1020.70 1020.99 1021.09 1021.20 1021.29 1021.44 1021.61 1021.75 1021.90 1022.00 1022.14 1022.28 1022.42 1022.46 1022.53 1022.72 1022.89 1022.94
1015.33 1015.62 1015.77 1015.90 1016.02 1016.66 1017.14 1017.52 1018.10 1018.53 1018.93 1018.96 1019.50 1019.78 1019.86 1019.94 1020.09 1019.97 1019.93 1019.69 1020.09 1020.61 1020.76 1020.48 1020.43 1020.60 1020.77 1020.84 1020.80 1020.89 1020.94 1021.02 1021.18 1021.29 1021.53 1021.75 1021.94 1022.03 1022.14 1022.27 1022.43 1022.62 1022.72
1015.15 1015.14 1015.41 1015.66 1015.70 1015.98 1016.22 1016.82 1017.34 1017.94 1018.58 1018.74 1018.88 1019.17 1019.60 1019.78 1019.60 1019.54 1019.71 1019.88 1019.87 1019.86 1019.92 1020.08 1020.21 1020.37 1020.56 1020.45 1020.47 1019.92 1020.31 1020.46 1020.55 1020.74 1020.98 1021.21 1021.46 1021.65 1021.78 1021.87 1021.96 1022.14 1022.34
1014.53 1014.73 1014.94 1015.13 1015.32 1016.17 1016.87 1016.99 1017.30 1017.26 1017.71 1018.24 1018.03 1018.14 1018.44 1018.59 1018.73 1018.72 1019.02 1019.21 1019.11 1019.21 1019.13 1019.25 1019.44 1019.80 1019.93 1019.92 1019.69 1019.92 1019.76 1020.00 1020.15 1020.30 1020.54 1020.77 1021.01 1021.18 1021.31 1021.47 1021.59 1021.71 1021.89
1014.88 1014.44 1014.53 1014.70 1015.62 1016.00 1016.22 1016.91 1017.03 1016.84 1017.18 1017.49 1017.32 1017.18 1017.10 1017.37 1017.86 1018.34 1018.42 1018.38 1018.40 1018.39 1018.50 1018.28 1018.44 1018.83 1019.06 1019.13 1019.23 1019.43 1019.47 1019.52 1019.71 1019.98 1020.19 1020.38 1020.53 1020.74 1020.84 1021.07 1021.24 1021.32 1021.41
1014.97 1014.53 1014.44 1014.89 1016.29 1016.27 1016.17 1016.96 1016.82 1016.66 1016.74 1017.08 1017.16 1016.90 1016.92 1016.80 1016.96 1017.52 1017.78 1017.71 1017.65 1017.56 1017.61 1017.59 1017.50 1017.82 1018.05 1018.48 1018.77 1018.99 1019.29 1019.46 1019.66 1019.86 1020.09 1020.24 1020.41 1020.61 1020.78 1021.02 1021.24 1021.36 1021.44
1014.91 1014.27 1014.36 1014.98 1015.86 1016.08 1016.33 1016.59 1016.35 1016.22 1016.52 1016.86 1016.77 1016.56 1016.53 1016.62 1016.66 1016.83 1017.05 1017.06 1016.93 1016.86 1016.93 1016.76 1016.90 1016.70 1016.95 1017.63 1017.90 1018.24 1018.72 1019.15 1019.48 1019.69 1019.89 1020.14 1020.35 1020.56 1020.72 1020.95 1021.18 1021.34 1021.46
1015.31 1014.54 1014.56 1014.75 1015.53 1015.72 1015.64 1015.45 1015.96 1016.20 1016.44 1016.47 1016.47 1016.48 1016.35 1016.35 1016.23 1015.97 1016.34 1016.69 1016.72 1016.60 1016.60 1016.56 1016.26 1015.93 1016.21 1016.81 1017.06 1017.57 1018.18 1018.70 1019.16 1019.48 1019.70 1019.92 1020.22 1020.48 1020.64 1020.72 1020.86 1021.04 1021.29
1016.65 1016.64 1016.06 1014.59 1015.14 1015.39 1015.10 1015.44 1015.88 1016.01 1015.92 1016.22 1016.45 1016.44 1016.42 1016.28 1016.21 1016.05 1016.11 1016.38 1016.60 1016.55 1016.65 1016.75 1016.23 1017.48 1017.14 1017.75 1017.85 1017.54 1018.24 1018.43 1018.82 1019.21 1019.52 1019.73 1020.00 1020.27 1020.45 1020.57 1020.68 1020.80 1021.01
1018.35 1016.73 1015.86 1015.47 1014.94 1015.06 1015.07 1015.41 1015.78 1015.79 1015.86 1016.10 1016.05 1016.21 1016.20 1016.02 1015.96 1015.89 1015.95 1016.04 1016.35 1016.57 1016.53 1016.51 1016.75 1017.19 1017.78 1017.90 1018.39 1018.42 1017.88 1018.13 1018.29 1018.86 1019.20 1019.42 1019.68 1019.96 1020.21 1020.39 1020.56 1020.67 1020.93
1017.10 1016.57 1014.78 1015.82 1015.19 1015.09 1015.23 1015.60 1015.81 1015.81 1015.91 1015.70 1015.45 1015.46 1015.86 1015.90 1015.88 1015.63 1015.81 1015.98 1016.10 1016.36 1016.30 1016.17 1016.68 1017.22 1017.56 1017.29 1017.57 1018.15 1017.32 1017.65 1017.74 1018.26 1018.80 1019.14 1019.42 1019.65 1019.77 1019.96 1020.32 1020.71 1020.93
1014.77 1014.19 1014.93 1016.10 1015.12 1014.76 1014.94 1015.28 1015.64 1015.63 1015.78 1015.65 1015.50 1015.47 1015.54 1015.81 1015.72 1015.68 1015.71 1015.65 1015.90 1016.13 1016.37 1016.18 1016.38 1017.19 1017.95 1017.77 1017.88 1017.69 1017.04 1017.14 1017.43 1018.07 1018.39 1018.64 1018.92 1019.22 1019.51 1019.75 1019.99 1020.33 1020.80
1014.31 1014.32 1015.16 1014.69 1014.43 1014.25 1014.48 1015.09 1015.41 1015.45 1015.48 1015.65 1015.61 1015.49 1015.65 1015.70 1015.85 1015.87 1015.99 1016.06 1015.99 1016.14 1016.52 1016.51 1016.35 1016.63 1016.93 1016.88 1016.71 1016.82 1016.65 1016.41 1016.60 1017.23 1017.71 1018.04 1018.37 1018.74 1019.13 1019.42 1019.74 1019.96 1020.27
1013.75 1013.92 1014.00 1014.17 1013.98 1014.22 1014.55 1015.14 1015.26 1015.13 1015.21 1015.46 1015.40 1015.49 1015.58 1015.53 1015.60 1015.65 1015.82 1016.00 1015.95 1016.04 1016.22 1016.40 1016.36 1015.86 1016.14 1016.30 1016.35 1016.53 1016.40 1016.18 1016.20 1016.39 1016.91 1017.49 1017.90 1018.37 1018.76 1019.02 1019.35 1019.61 1019.75
1013.14 1013.56 1013.76 1013.85 1013.88 1014.17 1014.80 1015.04 1015.00 1015.22 1015.48 1015.35 1015.22 1015.47 1015.62 1015.61 1015.65 1015.65 1015.70 1015.86 1015.83 1015.91 1015.99 1016.16 1016.05 1015.79 1015.85 1015.92 1016.28 1016.62 1016.77 1016.59 1016.43 1016.23 1016.86 1017.13 1017.67 1018.08 1018.35 1018.59 1018.77 1019.13 1019.38
1012.86 1013.30 1013.68 1013.86 1014.20 1014.74 1014.56 1014.63 1015.06 1015.40 1015.34 1015.19 1015.21 1015.52 1015.75 1015.81 1015.79 1015.86 1016.05 1016.11 1016.21 1016.21 1016.14 1016.05 1016.00 1015.88 1016.03 1016.17 1016.40 1016.41 1016.45 1016.39 1016.10 1016.10 1016.48 1016.83 1017.39 1017.80 1017.95 1018.14 1018.29 1018.37 1018.67
1012.89 1013.37 1013.68 1013.82 1014.03 1014.44 1014.56 1014.85 1015.04 1015.13 1015.03 1015.40 1015.75 1015.92 1015.99 1016.09 1015.92 1015.98 1016.08 1016.09 1016.20 1016.42 1016.43 1016.29 1016.15 1016.03 1015.87 1016.12 1016.08 1016.18 1016.27 1016.39 1016.25 1015.62 1015.94 1016.30 1016.42 1017.09 1017.17 1017.20 1017.30 1017.51 1017.73
1012.41 1013.26 1013.36 1013.52 1014.18 1014.88 1015.04 1015.02 1015.15 1015.04 1015.36 1015.69 1016.01 1016.15 1016.17 1016.33 1016.56 1016.48 1016.17 1015.99 1015.97 1015.96 1016.05 1016.12 1016.17 1016.12 1015.97 1015.84 1015.79 1015.96 1016.08 1016.17 1016.04 1015.96 1016.01 1015.99 1016.02 1016.23 1016.15 1016.16 1016.36 1016.50 1016.72
1012.38 1013.09 1013.16 1013.37 1014.37 1015.28 1015.36 1015.18 1015.28 1015.32 1015.42 1015.71 1015.96 1016.16 1016.29 1016.51 1017.03 1017.06 1016.77 1016.21 1015.77 1015.45 1015.32 1015.55 1015.61 1015.63 1015.71 1015.73 1015.85 1015.84 1015.92 1015.92 1015.73 1015.57 1015.70 1015.99 1015.59 1015.73 1015.61 1015.55 1015.65 1015.70 1015.85
1012.25 1012.71 1013.03 1013.38 1014.47 1015.32 1015.41 1015.45 1015.63 1015.50 1015.50 1015.58 1015.92 1016.42 1016.47 1016.88 1017.28 1017.28 1016.95 1016.38 1015.88 1015.47 1014.94 1015.19 1015.38 1015.29 1015.16 1015.13 1015.32 1015.53 1015.49 1015.58 1015.44 1015.33 1015.33 1015.63 1015.25 1015.32 1015.43 1015.16 1014.93 1015.00 1015.01
1011.78 1012.45 1012.96 1013.68 1014.30 1015.12 1015.58 1015.79 1015.71 1015.43 1015.28 1015.36 1016.15 1017.01 1017.19 1017.55 1017.60 1017.38 1017.09 1016.56 1016.19 1015.95 1015.76 1015.53 1015.36 1015.10 1014.89 1014.71 1015.04 1015.19 1015.17 1015.23 1015.25 1015.23 1014.78 1015.28 1015.11 1015.46 1015.20 1014.21 1014.03 1014.01 1014.29
Wind_Speed
4 4 4 5 5 5 6 5 3 4 4 5 5 1 5 5 6 6 5 16 17 14 12 11 9 8 8 7 7 7 7 7 7 7 7 7 6 5 4 4 3 3 3
4 5 4 5 7 6 4 5 5 4 5 4 5 6 5 4 3 9 6 7 12 14 13 12 11 11 9 9 8 7 6 7 7 6 7 7 7 6 5 4 5 4 4
5 5 4 5 5 5 5 4 5 5 4 4 3 4 5 4 4 5 6 6 8 12 13 12 12 11 11 10 11 10 9 8 7 7 7 6 5 6 6 5 6 6 6
5 4 4 6 4 3 0 4 2 2 3 3 2 1 5 5 7 8 4 5 7 6 9 11 12 12 12 10 11 12 11 9 9 7 5 6 8 8 7 7 7 7 7
6 5 3 4 6 3 2 4 3 2 1 2 3 2 2 3 5 4 8 4 7 4 3 11 11 11 12 13 12 12 11 11 9 9 9 9 9 9 8 8 8 8 8
7 5 4 6 5 4 3 3 4 3 0 3 3 2 1 2 2 5 4 3 3 2 3 5 5 6 11 13 11 11 12 12 11 12 11 11 11 11 10 11 10 10 10
3 5 4 6 4 5 5 8 5 5 1 3 3 1 2 5 5 5 1 2 3 5 5 3 3 3 4 13 14 12 14 13 14 14 13 13 12 11 11 11 10 11 11
7 4 4 2 6 4 2 3 4 3 2 4 4 3 3 2 5 8 5 6 8 7 7 8 7 6 6 5 10 19 18 18 17 16 15 15 15 13 12 11 11 11 12
6 5 5 4 4 7 3 2 5 5 2 5 7 4 2 2 3 3 8 7 9 7 7 8 10 9 9 8 11 10 14 19 18 17 14 13 14 13 13 12 11 11 11
8 8 6 5 6 1 2 4 6 3 3 4 6 6 4 4 3 3 4 7 8 8 10 8 9 11 12 9 12 13 16 17 18 17 14 13 13 11 11 10 7 7 9
7 6 4 3 6 4 4 7 6 4 4 2 2 1 2 2 1 2 2 4 6 9 9 9 9 10 12 8 7 9 14 14 14 13 12 10 9 8 7 6 5 4 5
6 6 5 3 5 7 10 11 8 5 3 2 2 2 3 2 2 3 3 4 7 5 6 7 7 8 8 9 11 13 15 14 12 11 8 8 8 8 7 6 5 5 5
3 2 6 5 3 6 5 3 3 2 3 2 1 3 3 3 3 1 3 2 1 1 5 4 4 4 6 7 9 13 16 14 12 11 10 10 8 7 7 7 7 6 6
6 19 6 6 4 5 2 5 5 4 5 4 4 3 3 4 2 3 2 2 2 1 2 4 1 6 6 12 6 15 8 13 13 11 10 10 9 8 7 7 7 8 8
10 12 6 7 6 5 4 2 3 5 5 4 4 4 4 4 3 3 3 1 3 3 2 4 3 4 6 7 14 10 9 15 14 12 11 11 11 9 9 8 8 9 7
18 14 8 13 4 3 1 3 5 5 3 3 4 5 3 4 3 3 2 2 2 1 1 2 2 3 3 5 10 12 7 16 17 15 13 12 11 11 11 11 10 9 8
9 9 9 14 7 5 6 5 5 3 5 2 5 5 3 4 4 4 3 3 3 2 2 4 2 4 4 5 7 9 5 6 7 11 14 14 13 13 12 11 12 11 9
7 6 13 6 4 5 4 4 4 2 3 4 4 4 4 3 5 4 4 6 3 5 3 5 4 3 4 8 6 6 5 5 7 15 17 15 13 12 12 11 11 11 10
12 7 5 3 3 3 3 4 3 3 1 1 2 4 5 5 5 3 2 3 4 3 2 1 4 2 3 4 3 2 3 3 4 12 17 14 13 12 11 11 11 11 12
7 6 6 6 3 3 4 3 4 2 4 5 4 0 4 5 5 5 3 3 4 3 4 2 4 4 2 3 3 3 2 3 4 4 8 9 10 11 11 13 12 12 11
7 6 6 5 5 5 6 5 4 5 1 4 5 6 5 3 2 3 2 4 5 4 4 3 3 4 1 2 3 2 1 2 3 2 4 4 4 4 7 12 12 15 14
6 7 8 6 5 3 4 9 2 3 3 6 6 6 6 9 0 1 3 5 3 3 5 3 3 3 3 3 2 1 1 2 3 3 4 3 5 6 7 7 14 15 16
8 10 7 6 7 4 3 8 5 3 6 4 3 2 4 6 9 7 4 6 7 9 9 4 4 4 4 4 3 3 2 3 4 2 2 3 4 7 6 8 16 18 19
6 8 9 7 8 5 2 5 1 2 5 3 5 4 3 5 7 7 8 7 6 5 5 4 5 4 4 3 4 2 3 4 4 3 3 3 3 4 4 5 10 14 16
6 7 7 9 9 7 6 2 3 2 5 5 5 7 4 7 7 8 6 8 5 5 0 4 6 7 8 8 6 2 4 4 4 3 4 3 3 2 1 5 7 14 15
7 5 6 7 10 7 3 5 4 4 3 2 8 6 11 5 4 6 5 5 6 6 8 6 5 7 11 8 7 5 4 5 3 2 4 5 3 3 4 5 7 7 8
Wind_Direction
149 158 196 180 194 193 177 181 189 185 228 251 222 123 330 3 39 122 143 158 156 163 166 164 165 168 167 169 170 171 171 167 168 170 165 164 167 164 169 171 174 179 182
144 173 197 204 172 186 205 157 170 183 241 236 174 164 200 253 116 138 142 170 170 167 170 175 175 183 185 192 195 193 194 192 188 190 200 188 177 177 197 201 209 198 200
142 177 195 210 201 172 160 167 190 179 209 250 262 203 151 229 127 126 168 157 182 182 181 180 179 195 197 199 201 204 208 212 217 219 224 211 212 201 206 207 202 215 222
179 201 206 177 100 96 9 125 154 215 203 93 349 143 72 31 14 17 128 194 176 180 192 187 185 199 205 211 217 217 214 209 220 226 230 233 224 223 218 224 225 222 217
162 210 210 152 151 166 180 149 168 178 297 82 82 51 59 69 65 81 259 45 31 39 163 204 193 202 210 219 221 231 225 219 217 215 217 223 230 230 230 229 229 231 234
174 193 210 157 168 141 174 195 151 183 266 152 176 137 218 354 89 245 267 118 107 170 243 202 189 208 218 230 235 231 238 229 225 216 221 224 227 226 229 230 230 232 238
188 201 282 147 166 183 128 181 169 158 206 134 106 187 195 200 213 226 177 276 218 221 227 243 216 200 204 225 231 226 228 233 229 225 219 223 232 235 238 234 236 238 240
195 214 211 240 185 157 150 129 139 149 140 179 189 151 158 235 212 220 198 221 233 232 236 223 229 206 212 220 226 233 228 231 231 227 226 223 225 234 244 239 235 234 238
180 201 192 163 182 90 38 324 199 193 142 187 211 160 157 210 152 203 192 211 223 219 231 211 208 213 225 218 229 232 240 225 228 234 235 231 230 229 239 243 242 240 239
213 175 195 163 109 132 169 268 255 178 170 201 199 200 172 137 183 147 211 217 213 207 217 226 206 214 217 218 216 221 230 221 222 232 234 240 236 237 235 237 247 253 235
233 174 163 161 133 146 221 228 231 185 185 201 247 201 234 233 260 131 209 221 209 207 212 213 206 210 212 194 214 211 217 221 220 226 235 239 239 231 216 206 202 175 162
203 151 156 166 174 166 193 213 197 161 201 321 340 275 221 226 233 162 212 211 202 215 212 209 233 204 176 188 197 193 193 207 209 216 219 216 210 213 215 212 210 207 192
16 216 149 160 210 212 180 152 140 220 206 245 247 302 319 317 336 313 147 247 178 335 206 223 224 194 168 185 198 166 180 184 196 202 204 201 198 208 218 214 210 204 193
38 353 254 154 207 218 245 174 184 224 170 188 210 275 311 300 351 15 290 95 319 228 93 203 103 20 58 33 321 154 175 180 191 198 207 204 191 198 206 204 198 189 183
43 278 315 293 199 192 206 152 231 217 166 184 221 201 245 281 311 311 326 311 199 287 272 226 211 94 93 78 310 252 180 191 187 198 202 198 196 200 203 202 193 174 170
182 203 274 282 245 156 179 242 282 223 163 243 223 180 232 264 296 264 341 303 316 217 268 112 121 106 72 128 236 267 193 180 189 192 197 195 200 203 201 195 184 184 185
210 164 205 246 203 188 191 217 250 184 214 252 310 331 251 296 299 297 293 308 329 344 340 339 80 130 154 205 274 237 205 174 178 199 198 196 197 202 203 199 189 187 198
202 202 217 200 220 170 197 203 244 21 191 233 264 276 289 276 282 274 305 307 318 321 312 292 266 155 179 202 205 200 239 198 187 197 204 196 195 198 202 200 199 198 200
178 181 188 171 196 197 189 215 245 331 9 294 330 281 252 258 256 272 269 286 291 331 303 281 295 231 168 185 186 234 224 233 288 178 194 190 188 195 203 205 205 205 205
167 179 195 179 182 203 187 250 214 208 230 214 187 32 297 307 19 355 332 328 290 311 319 306 269 246 202 218 164 193 224 223 245 166 180 182 189 200 203 215 209 211 212
167 195 184 180 203 199 211 175 169 189 106 29 349 20 25 69 108 53 324 341 345 345 310 322 314 295 66 59 209 248 246 264 246 199 186 154 170 201 226 225 224 219 213
180 197 183 180 182 88 34 93 96 142 70 48 37 14 347 31 263 80 295 290 295 290 289 318 304 335 328 338 29 341 312 307 288 206 165 234 173 206 218 207 213 217 211
174 215 174 185 113 125 63 94 83 58 79 64 97 27 344 41 27 348 309 256 269 239 230 288 292 296 314 329 341 316 288 263 256 194 136 251 196 224 209 214 205 213 219
173 198 185 147 118 83 69 97 150 146 133 171 106 100 85 77 35 3 333 308 292 275 218 214 223 253 285 333 328 267 259 266 258 239 141 252 185 232 196 215 207 214 219
183 182 168 133 119 110 57 35 256 211 188 155 128 39 43 65 22 9 327 319 345 340 289 248 276 269 257 239 221 277 261 251 264 245 172 220 251 235 287 247 232 210 204
171 157 159 123 110 120 75 1 3 278 168 85 111 91 56 54 21 14 345 348 335 22 347 336 286 258 255 247 207 220 264 263 266 278 203 188 183 164 265 225 237 233 229